Fort Payne, AL

10:18 AM CST on November 21, 2017 (GMT -0600)
Fort Payne

Weather History for K4A9 - June, 2013

Change the Weather History Date:

Sunday, June 2, 2013

  Actual Average (KRMG) Record (KRMG)
Temperature  
Mean Temperature 72 °F -  
Max Temperature 80 °F 81 °F 97 °F (2011)
Min Temperature 64 °F 59 °F 50 °F (2012)
Cooling Degree Days 7    
Growing Degree Days 22 (Base 50)    
Moisture  
Dew Point 65 °F    
Average Humidity 76    
Maximum Humidity 94    
Minimum Humidity 51    
Precipitation  
Precipitation 0.11 in - - ()
Sea Level Pressure  
Sea Level Pressure 29.94 in    
Wind  
Wind Speed 2 mph (WSW)    
Max Wind Speed 9 mph    
Max Gust Speed -    
Visibility 9 miles    
Events Rain , Thunderstorm    
Averages and records for this station are not official NWS values.
T = Trace of Precipitation, MM = Missing Value Source: NWS Daily Summary

Daily Weather History Graph

Daily Weather History Graph

Search for Another Location

Airport or City:

Trip Planner

Search our weather history database for the weather conditions in past years. The results will help you decide how hot, cold, wet, or windy it might be!

Date:

Astronomy

Jun. 02, 2013 Rise Set
Actual Time 5:31 AM CDT 7:51 PM CDT
Civil Twilight 5:02 AM CDT 8:20 PM CDT
Nautical Twilight 4:26 AM CDT 8:55 PM CDT
Astronomical Twilight 3:47 AM CDT 9:34 PM CDT
Moon 1:44 AM CDT (6/2) 2:32 PM CDT (6/2)
Length of Visible Light 15h 17m
Length of Day
14h 19m
Waning Crescent, 30% of the Moon is Illuminated
Jun 2
Waning Crescent
Jun 8
New
Jun 16
First Quarter
Jun 23
Full
Jun 29
Last Quarter

Hourly Weather History & Observations

Time (CDT) Temp. Heat Index Dew Point Humidity Pressure Visibility Wind Dir Wind Speed Gust Speed Precip Events Conditions
12:15 AM 68.0 °F - 64.4 °F 88% 30.00 in 10.0 mi Calm Calm - N/A   Scattered Clouds
12:35 AM 68.0 °F - 64.4 °F 88% 30.00 in 10.0 mi Calm Calm - N/A   Scattered Clouds
12:55 AM 68.0 °F - 64.4 °F 88% 29.99 in 10.0 mi Calm Calm - N/A   Scattered Clouds
1:15 AM 68.0 °F - 64.4 °F 88% 29.98 in 7.0 mi Calm Calm - N/A   Scattered Clouds
1:35 AM 68.0 °F - 64.4 °F 88% 29.98 in 10.0 mi SW 3.5 mph - N/A   Mostly Cloudy
1:55 AM 68.0 °F - 64.4 °F 88% 29.98 in 10.0 mi Calm Calm - N/A   Overcast
2:15 AM 68.0 °F - 64.4 °F 88% 29.97 in 10.0 mi Calm Calm - N/A   Overcast
2:35 AM 68.0 °F - 64.4 °F 88% 29.98 in 7.0 mi Calm Calm - N/A   Overcast
2:55 AM 68.0 °F - 66.2 °F 94% 29.98 in 10.0 mi Calm Calm - N/A   Overcast
3:15 AM 68.0 °F - 66.2 °F 94% 29.98 in 7.0 mi Calm Calm - N/A   Overcast
3:35 AM 68.0 °F - 64.4 °F 88% 29.96 in 7.0 mi Calm Calm - N/A Thunderstorm Overcast
3:55 AM 69.8 °F - 66.2 °F 88% 29.95 in 10.0 mi SW 3.5 mph - N/A   Overcast
4:15 AM 68.0 °F - 66.2 °F 94% 29.95 in 7.0 mi Calm Calm - N/A   Overcast
4:35 AM 69.8 °F - 66.2 °F 88% 29.95 in 10.0 mi Calm Calm - N/A   Overcast
4:55 AM 69.8 °F - 66.2 °F 88% 29.95 in 7.0 mi Calm Calm - N/A   Overcast
5:15 AM 69.8 °F - 66.2 °F 88% 29.95 in 10.0 mi SW 4.6 mph - N/A   Overcast
5:35 AM 69.8 °F - 66.2 °F 88% 29.95 in 4.0 mi South 3.5 mph - N/A Rain Heavy Rain
5:55 AM 69.8 °F - 68.0 °F 94% 29.95 in 10.0 mi SW 3.5 mph - N/A   Overcast
6:15 AM 69.8 °F - 68.0 °F 94% 29.96 in 7.0 mi SW 4.6 mph - N/A Thunderstorm Overcast
6:35 AM 69.8 °F - 68.0 °F 94% 29.95 in 4.0 mi SSW 3.5 mph - N/A Thunderstorm Overcast
6:55 AM 69.8 °F - 68.0 °F 94% 29.95 in 4.0 mi SSW 5.8 mph - N/A   Overcast
7:15 AM 71.6 °F - 68.0 °F 88% 29.94 in 4.0 mi SSW 9.2 mph - N/A   Overcast
7:35 AM 71.6 °F - 68.0 °F 88% 29.95 in 7.0 mi SW 5.8 mph - N/A   Overcast
7:55 AM 71.6 °F - 68.0 °F 88% 29.96 in 5.0 mi SW 5.8 mph - N/A   Overcast
8:15 AM 71.6 °F - 69.8 °F 94% 29.96 in 5.0 mi SW 4.6 mph - N/A   Overcast
8:35 AM 71.6 °F - 69.8 °F 94% 29.96 in 5.0 mi SW 4.6 mph - N/A   Overcast
8:55 AM 73.4 °F - 69.8 °F 88% 29.96 in 7.0 mi SW 3.5 mph - N/A   Mostly Cloudy
9:15 AM 73.4 °F - 69.8 °F 88% 29.96 in 7.0 mi West 3.5 mph - N/A   Mostly Cloudy
9:35 AM 75.2 °F - 69.8 °F 83% 29.96 in 10.0 mi SW 4.6 mph - N/A   Mostly Cloudy
9:55 AM 75.2 °F - 69.8 °F 83% 29.95 in 10.0 mi Calm Calm - N/A   Scattered Clouds
10:15 AM 77.0 °F - 66.2 °F 69% 29.95 in 10.0 mi WSW 5.8 mph - N/A   Scattered Clouds
10:35 AM 77.0 °F - 66.2 °F 69% 29.95 in 10.0 mi West 3.5 mph - N/A   Clear
10:55 AM 78.8 °F - 64.4 °F 61% 29.95 in 10.0 mi West 3.5 mph - 0.08 in   Scattered Clouds
11:15 AM 78.8 °F - 64.4 °F 61% 29.95 in 10.0 mi West 4.6 mph - N/A   Clear
11:35 AM 78.8 °F - 62.6 °F 57% 29.95 in 10.0 mi WSW 3.5 mph - N/A   Clear
11:55 AM 78.8 °F - 62.6 °F 57% 29.95 in 10.0 mi Calm Calm - N/A   Clear
12:15 PM 78.8 °F - 62.6 °F 57% 29.94 in 10.0 mi WSW 4.6 mph - N/A   Clear
12:35 PM 78.8 °F - 62.6 °F 57% 29.94 in 10.0 mi West 4.6 mph - N/A   Clear
12:55 PM 78.8 °F - 60.8 °F 54% 29.94 in 10.0 mi WSW 4.6 mph - N/A   Clear
1:15 PM 80.6 °F 81.8 °F 62.6 °F 54% 29.94 in 10.0 mi WNW 6.9 mph - N/A   Clear
1:35 PM 80.6 °F 81.8 °F 62.6 °F 54% 29.93 in 10.0 mi NNW 6.9 mph - N/A   Clear
1:55 PM 78.8 °F - 62.6 °F 57% 29.93 in 10.0 mi WNW 5.8 mph - N/A   Scattered Clouds
2:15 PM 80.6 °F 81.5 °F 60.8 °F 51% 29.93 in 10.0 mi WNW 4.6 mph - N/A   Scattered Clouds
2:35 PM 80.6 °F 81.5 °F 60.8 °F 51% 29.93 in 10.0 mi West 4.6 mph - N/A   Clear
2:55 PM 80.6 °F 81.5 °F 60.8 °F 51% 29.93 in 10.0 mi NW 5.8 mph - N/A   Clear
3:15 PM 80.6 °F 81.5 °F 60.8 °F 51% 29.92 in 10.0 mi West 8.1 mph - N/A   Scattered Clouds
3:35 PM 80.6 °F 81.5 °F 60.8 °F 51% 29.92 in 10.0 mi West 5.8 mph - N/A   Scattered Clouds
3:55 PM 80.6 °F 81.5 °F 60.8 °F 51% 29.92 in 10.0 mi West 9.2 mph - N/A   Clear
4:15 PM 80.6 °F 81.8 °F 62.6 °F 54% 29.91 in 10.0 mi WSW 8.1 mph - N/A   Clear
4:35 PM 78.8 °F - 62.6 °F 57% 29.91 in 10.0 mi West 5.8 mph - N/A   Scattered Clouds
4:55 PM 78.8 °F - 62.6 °F 57% 29.91 in 10.0 mi West 5.8 mph - N/A   Mostly Cloudy
5:15 PM 78.8 °F - 64.4 °F 61% 29.90 in 10.0 mi West 5.8 mph - N/A   Overcast
5:35 PM 78.8 °F - 62.6 °F 57% 29.90 in 10.0 mi West 4.6 mph - N/A   Mostly Cloudy
5:55 PM 78.8 °F - 62.6 °F 57% 29.91 in 10.0 mi West 5.8 mph - N/A   Scattered Clouds
6:15 PM 77.0 °F - 62.6 °F 61% 29.90 in 10.0 mi NW 5.8 mph - N/A   Scattered Clouds
6:35 PM 78.8 °F - 62.6 °F 57% 29.91 in 10.0 mi NW 4.6 mph - N/A   Clear
6:55 PM 77.0 °F - 62.6 °F 61% 29.91 in 10.0 mi Calm Calm - N/A   Clear
7:15 PM 77.0 °F - 64.4 °F 65% 29.92 in 10.0 mi Calm Calm - N/A   Scattered Clouds
7:35 PM 73.4 °F - 64.4 °F 73% 29.92 in 10.0 mi Calm Calm - N/A   Clear
7:55 PM 73.4 °F - 66.2 °F 78% 29.93 in 10.0 mi Calm Calm - 0.03 in   Scattered Clouds
8:15 PM 71.6 °F - 64.4 °F 78% 29.93 in 10.0 mi ESE 3.5 mph - N/A   Clear
8:35 PM 69.8 °F - 64.4 °F 83% 29.93 in 10.0 mi Calm Calm - N/A   Clear
8:55 PM 69.8 °F - 64.4 °F 83% 29.93 in 10.0 mi Calm Calm - N/A   Clear
9:15 PM 68.0 °F - 64.4 °F 88% 29.94 in 10.0 mi Calm Calm - N/A   Clear
9:35 PM 68.0 °F - 64.4 °F 88% 29.94 in 10.0 mi Calm Calm - N/A   Clear
9:55 PM 68.0 °F - 64.4 °F 88% 29.93 in 10.0 mi Calm Calm - N/A   Clear
10:15 PM 66.2 °F - 62.6 °F 88% 29.94 in 10.0 mi Calm Calm - N/A   Clear
10:35 PM 66.2 °F - 62.6 °F 88% 29.94 in 10.0 mi NE 3.5 mph - N/A   Clear
10:55 PM 64.4 °F - 62.6 °F 94% 29.94 in 10.0 mi Calm Calm - N/A   Clear
11:15 PM 64.4 °F - 62.6 °F 94% 29.94 in 10.0 mi Calm Calm - N/A   Clear
11:35 PM 64.4 °F - 62.6 °F 94% 29.93 in 7.0 mi Calm Calm - N/A   Clear
11:55 PM 64.4 °F - 62.6 °F 94% 29.93 in 10.0 mi Calm Calm - N/A   Clear